Location: Pilipovskiye Korichintsy
(49.1833°N, 27.4667°E)
Time: 22:23:23
(UTC+00:00)

CZ-2D R/B - Pass Details

Date: 14 July 2020
Orbit: 792 x 844 km, 98.7° (Epoch: 10 August)

Event Time Altitude Azimuth Distance (km) Brightness Sun altitude
Rises 00:37:24 0° 10° (N) 3,345 6.7 -12.5°
Reaches altitude 10° 00:39:48 10° 5° (N) 2,417 5.6 -12.3°
Maximum altitude 00:44:54 48° 293° (WNW) 1,075 2.7 -11.8°
Enters shadow 00:49:08 15° 224° (SW) 2,095 3.6 -11.4°
